Regional Weather Roundup
Issued by NWS

Home | Current Version | Previous Version | Graphics & Text | Print | Product List | Glossary On
Versions: 1 2 3 4 5 6 7 8 9 10 11 12 13 14 15 16 17 18 19 20 21 22 23 24 25 26 27 28 29 30 31 32 33 34 35 36 37 38 39 40 41 42 43 44 45 46 47 48 49 50
000
ASUS43 KFSD 310602
RWRSD

WEATHER ROUNDUP FOR SOUTH DAKOTA
NATIONAL WEATHER SERVICE SIOUX FALLS SD
100 AM CDT MON AUG 31 2015

NOTE: "FAIR" INDICATES FEW OR NO CLOUDS BELOW 12,000 FEET WITH NO
SIGNIFICANT WEATHER AND/OR OBSTRUCTIONS TO VISIBILITY.


SDZ001>005-009-010-012>017-310700-
NORTHWEST AND NORTH CENTRAL SOUTH DAKOTA

CITY           SKY/WX    TMP DP  RH WIND       PRES   REMARKS
FAITH            N/A     81  49  32 S9        29.65F
MOBRIDGE       MOCLDY    75  60  59 SE9       29.64F
$$

SDZ012>016-024>037-041>051-057-063-072>074-310700-
SOUTHWEST AND SOUTH CENTRAL SOUTH DAKOTA

CITY           SKY/WX    TMP DP  RH WIND       PRES   REMARKS
RAPID CTY ARPT MOCLDY    68  57  68 S7        29.78R
PIERRE         CLEAR     71  58  63 SE10      29.70S
CUSTER         PTCLDY    70  44  39 W7        29.97S
ELLSWORTH AFB  MOCLDY    70  58  65 S10       29.77R
PHILIP         MOCLDY    77  51  40 S12       29.70F
PINE RIDGE     PTCLDY    78  45  30 S14       29.81S
WINNER         FAIR      75  58  55 S25G32    29.77S
$$

SDZ004>011-016>023-039-040-310700-
NORTHEAST SOUTH DAKOTA

CITY           SKY/WX    TMP DP  RH WIND       PRES   REMARKS
ABERDEEN       CLEAR     69  64  84 S22G30    29.73F
WATERTOWN      FAIR      65  62  90 S12       29.84R
BROOKINGS      MOCLDY    66  63  88 S15       29.90S
$$

SDZ017-020-022-023-036>040-048>070-310700-
SOUTHEAST SOUTH DAKOTA

CITY           SKY/WX    TMP DP  RH WIND       PRES   REMARKS
SIOUX FALLS    FAIR      67  64  90 S14       29.90S
HURON          CLEAR     67  65  93 S13       29.80R
CHAMBERLAIN    CLEAR     71  63  75 S12G17    29.79R
MITCHELL       CLEAR     68  66  93 S13       29.83S
YANKTON        FAIR      70  64  83 S12       29.88S
$$

ABBREVIATIONS USED IN REMARKS
   TC - TEMPERATURE IN CELSIUS
  WCI - WIND CHILL INDEX
   HX - HEAT INDEX
  VSB - VISIBILITY



USA.gov is the U.S. government's official web portal to all federal, state and local government web resources and services.